Data supplied by UK-AIR on 22/3/2018
All Data GMT hour ending 
Status: R =Ratified P=Provisional,P*=As supplied
,,Inverness,,,,,,,,,,,,,,,,,,,,,,,
Date,time,"Nitric oxide",status,unit,"Nitrogen dioxide",status,unit,"Nitrogen oxides as nitrogen dioxide",status,unit
 
01-01-2017,01:00,3.73383,R,ugm-3,8.09019,R,ugm-3,13.81533,R,ugm-3
01-01-2017,02:00,4.85848,R,ugm-3,11.43369,R,ugm-3,18.88326,R,ugm-3
01-01-2017,03:00,0.94471,R,ugm-3,4.12273,R,ugm-3,5.57126,R,ugm-3
01-01-2017,04:00,0.64105,R,ugm-3,1.88080,R,ugm-3,2.86373,R,ugm-3
01-01-2017,05:00,0.23618,R,ugm-3,0.67922,R,ugm-3,1.04136,R,ugm-3
01-01-2017,06:00,0.80975,R,ugm-3,2.14281,R,ugm-3,3.38441,R,ugm-3
01-01-2017,07:00,1.75445,R,ugm-3,9.91029,R,ugm-3,12.60041,R,ugm-3
01-01-2017,08:00,4.28491,R,ugm-3,12.12224,R,ugm-3,18.69235,R,ugm-3
01-01-2017,09:00,1.04592,R,ugm-3,2.71790,R,ugm-3,4.32163,R,ugm-3
01-01-2017,10:00,0.40487,R,ugm-3,1.40985,R,ugm-3,2.03065,R,ugm-3
01-01-2017,11:00,1.45080,R,ugm-3,2.82605,R,ugm-3,5.05058,R,ugm-3
01-01-2017,12:00,3.94752,R,ugm-3,9.30723,R,ugm-3,15.36001,R,ugm-3
01-01-2017,13:00,1.07966,R,ugm-3,6.20678,R,ugm-3,7.86224,R,ugm-3
01-01-2017,14:00,2.93533,R,ugm-3,9.97407,R,ugm-3,14.47485,R,ugm-3
01-01-2017,15:00,0.91097,R,ugm-3,5.99684,R,ugm-3,7.39363,R,ugm-3
01-01-2017,16:00,0.40487,R,ugm-3,4.32565,R,ugm-3,4.94644,R,ugm-3
01-01-2017,17:00,0.64105,R,ugm-3,4.58833,R,ugm-3,5.57126,R,ugm-3
01-01-2017,18:00,0.77601,R,ugm-3,4.53760,R,ugm-3,5.72746,R,ugm-3
01-01-2017,19:00,0.87723,R,ugm-3,4.06999,R,ugm-3,5.41505,R,ugm-3
01-01-2017,20:00,2.83412,R,ugm-3,7.57795,R,ugm-3,11.92353,R,ugm-3
01-01-2017,21:00,15.14902,R,ugm-3,28.68344,R,ugm-3,51.91161,R,ugm-3
01-01-2017,22:00,27.76758,R,ugm-3,47.03234,R,ugm-3,89.60871,R,ugm-3
01-01-2017,23:00,5.93815,R,ugm-3,11.93037,R,ugm-3,21.03540,R,ugm-3
01-01-2017,24:00,2.93533,R,ugm-3,5.96485,R,ugm-3,10.46563,R,ugm-3
02-01-2017,01:00,1.84272,R,ugm-3,3.56152,R,ugm-3,6.38699,R,ugm-3
02-01-2017,02:00,0.85394,R,ugm-3,2.85606,R,ugm-3,4.16543,R,ugm-3
02-01-2017,03:00,1.71912,R,ugm-3,2.62290,R,ugm-3,5.25885,R,ugm-3
02-01-2017,04:00,1.38204,R,ugm-3,1.36945,R,ugm-3,3.48854,R,ugm-3
02-01-2017,05:00,0.94383,R,ugm-3,1.78102,R,ugm-3,3.22820,R,ugm-3
02-01-2017,06:00,0.50562,R,ugm-3,2.19259,R,ugm-3,2.96787,R,ugm-3
02-01-2017,07:00,2.79779,R,ugm-3,5.29060,R,ugm-3,9.58048,R,ugm-3
02-01-2017,08:00,3.94387,R,ugm-3,7.69872,R,ugm-3,13.74590,R,ugm-3
02-01-2017,09:00,3.53937,R,ugm-3,5.92383,R,ugm-3,11.35078,R,ugm-3
02-01-2017,10:00,6.60682,R,ugm-3,8.92650,R,ugm-3,19.05682,R,ugm-3
02-01-2017,11:00,10.41586,R,ugm-3,17.66505,R,ugm-3,33.63581,R,ugm-3
02-01-2017,12:00,16.71931,R,ugm-3,24.50539,R,ugm-3,50.14130,R,ugm-3
02-01-2017,13:00,23.49467,R,ugm-3,36.14133,R,ugm-3,72.16599,R,ugm-3
02-01-2017,14:00,27.27000,R,ugm-3,35.66349,R,ugm-3,77.47691,R,ugm-3
02-01-2017,15:00,27.47225,R,ugm-3,45.71487,R,ugm-3,87.83840,R,ugm-3
02-01-2017,16:00,23.76434,R,ugm-3,38.59157,R,ugm-3,75.02972,R,ugm-3
02-01-2017,17:00,14.12377,R,ugm-3,19.52949,R,ugm-3,41.18564,R,ugm-3
02-01-2017,18:00,10.21361,R,ugm-3,14.27834,R,ugm-3,29.93899,R,ugm-3
02-01-2017,19:00,12.23611,R,ugm-3,20.75770,R,ugm-3,39.51947,R,ugm-3
02-01-2017,20:00,9.47203,R,ugm-3,18.17501,R,ugm-3,32.69859,R,ugm-3
02-01-2017,21:00,5.42703,R,ugm-3,9.06931,R,ugm-3,17.39065,R,ugm-3
02-01-2017,22:00,3.06745,R,ugm-3,4.51264,R,ugm-3,9.21600,R,ugm-3
02-01-2017,23:00,1.78654,R,ugm-3,3.14434,R,ugm-3,5.88366,R,ugm-3
02-01-2017,24:00,1.68541,R,ugm-3,3.40353,R,ugm-3,5.98780,R,ugm-3
03-01-2017,01:00,0.80825,R,ugm-3,2.30131,R,ugm-3,3.54061,R,ugm-3
03-01-2017,02:00,0.31432,R,ugm-3,0.55941,R,ugm-3,1.04136,R,ugm-3
03-01-2017,03:00,0.80825,R,ugm-3,1.31202,R,ugm-3,2.55132,R,ugm-3
03-01-2017,04:00,0.84193,R,ugm-3,2.09347,R,ugm-3,3.38441,R,ugm-3
03-01-2017,05:00,0.70722,R,ugm-3,2.30002,R,ugm-3,3.38441,R,ugm-3
03-01-2017,06:00,0.53883,R,ugm-3,4.32851,R,ugm-3,5.15471,R,ugm-3
03-01-2017,07:00,3.63713,R,ugm-3,9.36661,R,ugm-3,14.94346,R,ugm-3
03-01-2017,08:00,4.51273,R,ugm-3,10.57536,R,ugm-3,17.49479,R,ugm-3
03-01-2017,09:00,4.54641,R,ugm-3,11.77335,R,ugm-3,18.74441,R,ugm-3
03-01-2017,10:00,6.16291,R,ugm-3,15.38668,R,ugm-3,24.83635,R,ugm-3
03-01-2017,11:00,6.39865,R,ugm-3,11.12014,R,ugm-3,20.93126,R,ugm-3
03-01-2017,12:00,9.63165,R,ugm-3,15.11860,R,ugm-3,29.88692,R,ugm-3
03-01-2017,13:00,10.50726,R,ugm-3,14.71325,R,ugm-3,30.82415,R,ugm-3
03-01-2017,14:00,11.51757,R,ugm-3,17.95436,R,ugm-3,35.61438,R,ugm-3
03-01-2017,15:00,16.29972,R,ugm-3,19.16096,R,ugm-3,44.15351,R,ugm-3
03-01-2017,16:00,19.12859,R,ugm-3,29.08999,R,ugm-3,58.42009,R,ugm-3
03-01-2017,17:00,17.74783,R,ugm-3,28.81200,R,ugm-3,56.02497,R,ugm-3
03-01-2017,18:00,10.91138,R,ugm-3,19.82105,R,ugm-3,36.55160,R,ugm-3
03-01-2017,19:00,8.11618,R,ugm-3,16.14059,R,ugm-3,28.58523,R,ugm-3
03-01-2017,20:00,7.10587,R,ugm-3,14.40944,R,ugm-3,25.30496,R,ugm-3
03-01-2017,21:00,3.87287,R,ugm-3,11.13993,R,ugm-3,17.07824,R,ugm-3
03-01-2017,22:00,2.12166,R,ugm-3,5.59837,R,ugm-3,8.85153,R,ugm-3
03-01-2017,23:00,2.92991,R,ugm-3,9.82619,R,ugm-3,14.31865,R,ugm-3
03-01-2017,24:00,0.06735,R,ugm-3,2.23978,R,ugm-3,2.34305,R,ugm-3
04-01-2017,01:00,0.44903,R,ugm-3,4.10174,R,ugm-3,4.79024,R,ugm-3
04-01-2017,02:00,0.26942,R,ugm-3,2.50270,R,ugm-3,2.91580,R,ugm-3
04-01-2017,03:00,0.57251,R,ugm-3,8.85884,R,ugm-3,9.73668,R,ugm-3
04-01-2017,04:00,1.21238,R,ugm-3,11.10594,R,ugm-3,12.96489,R,ugm-3
04-01-2017,05:00,0.43780,R,ugm-3,8.28438,R,ugm-3,8.95566,R,ugm-3
04-01-2017,06:00,0.26942,R,ugm-3,7.70948,R,ugm-3,8.12258,R,ugm-3
04-01-2017,07:00,1.68386,R,ugm-3,9.96647,R,ugm-3,12.54834,R,ugm-3
04-01-2017,08:00,1.11134,R,ugm-3,8.44919,R,ugm-3,10.15322,R,ugm-3
04-01-2017,09:00,1.11134,R,ugm-3,12.35427,R,ugm-3,14.05831,R,ugm-3
04-01-2017,10:00,33.13827,R,ugm-3,54.00121,R,ugm-3,104.81251,R,ugm-3
04-01-2017,11:00,6.60071,R,ugm-3,20.49492,R,ugm-3,30.61587,R,ugm-3
04-01-2017,12:00,12.39317,R,ugm-3,28.96921,R,ugm-3,47.97181,R,ugm-3
04-01-2017,13:00,16.97326,R,ugm-3,28.59384,R,ugm-3,54.61914,R,ugm-3
04-01-2017,14:00,1.24605,R,ugm-3,12.46013,R,ugm-3,14.37072,R,ugm-3
04-01-2017,15:00,0.80825,R,ugm-3,8.60152,R,ugm-3,9.84082,R,ugm-3
04-01-2017,16:00,0.70722,R,ugm-3,8.39195,R,ugm-3,9.47634,R,ugm-3
04-01-2017,17:00,1.04399,R,ugm-3,11.10378,R,ugm-3,12.70455,R,ugm-3
04-01-2017,18:00,1.65018,R,ugm-3,14.49594,R,ugm-3,17.02618,R,ugm-3
04-01-2017,19:00,4.14228,R,ugm-3,20.51558,R,ugm-3,26.86699,R,ugm-3
04-01-2017,20:00,3.77184,R,ugm-3,26.86312,R,ugm-3,32.64652,R,ugm-3
04-01-2017,21:00,1.58282,R,ugm-3,11.78755,R,ugm-3,14.21451,R,ugm-3
04-01-2017,22:00,1.81856,R,ugm-3,11.53022,R,ugm-3,14.31865,R,ugm-3
04-01-2017,23:00,2.08798,R,ugm-3,9.29475,R,ugm-3,12.49628,R,ugm-3
04-01-2017,24:00,3.77184,R,ugm-3,14.62718,R,ugm-3,20.41058,R,ugm-3
05-01-2017,01:00,4.63355,R,ugm-3,17.09915,R,ugm-3,24.20384,R,ugm-3
05-01-2017,02:00,0.67479,R,ugm-3,5.92046,R,ugm-3,6.95513,R,ugm-3
05-01-2017,03:00,1.31584,R,ugm-3,9.35404,R,ugm-3,11.37163,R,ugm-3
05-01-2017,04:00,2.42924,R,ugm-3,12.96752,R,ugm-3,16.69230,R,ugm-3
05-01-2017,05:00,14.03562,R,ugm-3,30.38164,R,ugm-3,51.90262,R,ugm-3
05-01-2017,06:00,7.92877,R,ugm-3,22.06193,R,ugm-3,34.21922,R,ugm-3
05-01-2017,07:00,11.33646,R,ugm-3,23.61813,R,ugm-3,41.00046,R,ugm-3
05-01-2017,08:00,55.26524,R,ugm-3,54.48536,R,ugm-3,139.22422,R,ugm-3
05-01-2017,09:00,89.37584,R,ugm-3,70.72592,R,ugm-3,207.76697,R,ugm-3
05-01-2017,10:00,98.92411,R,ugm-3,71.10852,R,ugm-3,222.79004,R,ugm-3
05-01-2017,11:00,79.86131,R,ugm-3,67.73559,R,ugm-3,190.18789,R,ugm-3
05-01-2017,12:00,35.19026,R,ugm-3,38.73678,R,ugm-3,92.69443,R,ugm-3
05-01-2017,13:00,31.64762,R,ugm-3,39.57838,R,ugm-3,88.10405,R,ugm-3
05-01-2017,14:00,26.62044,R,ugm-3,37.01041,R,ugm-3,77.82785,R,ugm-3
05-01-2017,15:00,38.56421,R,ugm-3,48.37788,R,ugm-3,107.50885,R,ugm-3
05-01-2017,16:00,55.67012,R,ugm-3,66.17513,R,ugm-3,151.53479,R,ugm-3
05-01-2017,17:00,21.28960,R,ugm-3,35.63834,R,ugm-3,68.28194,R,ugm-3
05-01-2017,18:00,20.68229,R,ugm-3,28.32771,R,ugm-3,60.04012,R,ugm-3
05-01-2017,19:00,10.79663,R,ugm-3,15.52591,R,ugm-3,32.08051,R,ugm-3
05-01-2017,20:00,9.95314,R,ugm-3,17.08006,R,ugm-3,32.34133,R,ugm-3
05-01-2017,21:00,6.27554,R,ugm-3,11.34734,R,ugm-3,20.96970,R,ugm-3
05-01-2017,22:00,3.37395,R,ugm-3,7.55457,R,ugm-3,12.72788,R,ugm-3
05-01-2017,23:00,2.15933,R,ugm-3,6.70446,R,ugm-3,10.01538,R,ugm-3
05-01-2017,24:00,1.99063,R,ugm-3,6.02418,R,ugm-3,9.07644,R,ugm-3
06-01-2017,01:00,0.81199,R,ugm-3,3.70215,R,ugm-3,4.94719,R,ugm-3
06-01-2017,02:00,0.54133,R,ugm-3,3.76877,R,ugm-3,4.59880,R,ugm-3
06-01-2017,03:00,0.27066,R,ugm-3,3.03409,R,ugm-3,3.44910,R,ugm-3
06-01-2017,04:00,0.77816,R,ugm-3,3.30112,R,ugm-3,4.49428,R,ugm-3
06-01-2017,05:00,0.87966,R,ugm-3,3.66808,R,ugm-3,5.01687,R,ugm-3
06-01-2017,06:00,1.15032,R,ugm-3,4.03695,R,ugm-3,5.80076,R,ugm-3
06-01-2017,07:00,3.07880,R,ugm-3,4.73812,R,ugm-3,9.45889,R,ugm-3
06-01-2017,08:00,6.22527,R,ugm-3,12.03771,R,ugm-3,21.58299,R,ugm-3
06-01-2017,09:00,16.51051,R,ugm-3,18.16378,R,ugm-3,43.47954,R,ugm-3
06-01-2017,10:00,11.97689,R,ugm-3,16.64927,R,ugm-3,35.01357,R,ugm-3
06-01-2017,11:00,14.10837,R,ugm-3,20.59280,R,ugm-3,42.22532,R,ugm-3
06-01-2017,12:00,15.15719,R,ugm-3,16.94652,R,ugm-3,40.18722,R,ugm-3
06-01-2017,13:00,23.48011,R,ugm-3,29.79183,R,ugm-3,65.79416,R,ugm-3
06-01-2017,14:00,30.11138,R,ugm-3,30.80746,R,ugm-3,76.97760,R,ugm-3
06-01-2017,15:00,32.44586,R,ugm-3,31.67000,R,ugm-3,81.41962,R,ugm-3
06-01-2017,16:00,30.38205,R,ugm-3,39.53778,R,ugm-3,86.12294,R,ugm-3
06-01-2017,17:00,34.78034,R,ugm-3,25.79111,R,ugm-3,79.12022,R,ugm-3
06-01-2017,18:00,29.02873,R,ugm-3,34.87143,R,ugm-3,79.38152,R,ugm-3
06-01-2017,19:00,36.67499,R,ugm-3,36.94372,R,ugm-3,93.17791,R,ugm-3
06-01-2017,20:00,33.25785,R,ugm-3,46.67753,R,ugm-3,97.67219,R,ugm-3
06-01-2017,21:00,18.16833,R,ugm-3,24.08779,R,ugm-3,51.94551,R,ugm-3
06-01-2017,22:00,13.90537,R,ugm-3,23.56927,R,ugm-3,44.89054,R,ugm-3
06-01-2017,23:00,11.53706,R,ugm-3,25.63286,R,ugm-3,43.32276,R,ugm-3
06-01-2017,24:00,15.49552,R,ugm-3,34.87520,R,ugm-3,58.63467,R,ugm-3
07-01-2017,01:00,8.76761,R,ugm-3,23.27461,R,ugm-3,36.71809,R,ugm-3
07-01-2017,02:00,2.07892,R,ugm-3,7.91157,R,ugm-3,11.09919,R,ugm-3
07-01-2017,03:00,1.08465,R,ugm-3,4.14826,R,ugm-3,5.81137,R,ugm-3
07-01-2017,04:00,1.25413,R,ugm-3,3.62663,R,ugm-3,5.54960,R,ugm-3
07-01-2017,05:00,2.06762,R,ugm-3,5.99177,R,ugm-3,9.16207,R,ugm-3
07-01-2017,06:00,1.59308,R,ugm-3,6.71938,R,ugm-3,9.16207,R,ugm-3
07-01-2017,07:00,24.26909,R,ugm-3,37.13157,R,ugm-3,74.34366,R,ugm-3
07-01-2017,08:00,51.08033,R,ugm-3,53.14053,R,ugm-3,131.46262,R,ugm-3
07-01-2017,09:00,126.46365,R,ugm-3,70.48294,R,ugm-3,264.39117,R,ugm-3
07-01-2017,10:00,91.61921,R,ugm-3,53.85978,R,ugm-3,194.34060,R,ugm-3
07-01-2017,11:00,19.28647,R,ugm-3,31.36868,R,ugm-3,60.94086,R,ugm-3
07-01-2017,12:00,15.96472,R,ugm-3,25.25805,R,ugm-3,49.73695,R,ugm-3
07-01-2017,13:00,24.43857,R,ugm-3,31.89801,R,ugm-3,69.36996,R,ugm-3
07-01-2017,14:00,27.04851,R,ugm-3,33.55046,R,ugm-3,75.02427,R,ugm-3
07-01-2017,15:00,34.36991,R,ugm-3,44.36579,R,ugm-3,97.06559,R,ugm-3
07-01-2017,16:00,36.74259,R,ugm-3,46.27734,R,ugm-3,102.61519,R,ugm-3
07-01-2017,17:00,24.23520,R,ugm-3,33.04752,R,ugm-3,70.20764,R,ugm-3
07-01-2017,18:00,33.86148,R,ugm-3,45.77363,R,ugm-3,97.69385,R,ugm-3
07-01-2017,19:00,20.30333,R,ugm-3,37.03446,R,ugm-3,68.16580,R,ugm-3
07-01-2017,20:00,15.76135,R,ugm-3,25.30811,R,ugm-3,49.47518,R,ugm-3
07-01-2017,21:00,8.10100,R,ugm-3,25.95463,R,ugm-3,38.37599,R,ugm-3
07-01-2017,22:00,7.55867,R,ugm-3,13.17397,R,ugm-3,24.76377,R,ugm-3
07-01-2017,23:00,4.16913,R,ugm-3,7.79554,R,ugm-3,14.18812,R,ugm-3
07-01-2017,24:00,2.74553,R,ugm-3,9.50718,R,ugm-3,13.71693,R,ugm-3
08-01-2017,01:00,2.62848,R,ugm-3,8.48787,R,ugm-3,12.51814,R,ugm-3
08-01-2017,02:00,1.76742,R,ugm-3,8.82906,R,ugm-3,11.53907,R,ugm-3
08-01-2017,03:00,2.51518,R,ugm-3,6.26635,R,ugm-3,10.12291,R,ugm-3
08-01-2017,04:00,1.59748,R,ugm-3,4.94606,R,ugm-3,7.39549,R,ugm-3
08-01-2017,05:00,0.47585,R,ugm-3,3.36151,R,ugm-3,4.09112,R,ugm-3
08-01-2017,06:00,0.57781,R,ugm-3,3.04781,R,ugm-3,3.93377,R,ugm-3
08-01-2017,07:00,1.05366,R,ugm-3,3.78680,R,ugm-3,5.40238,R,ugm-3
08-01-2017,08:00,2.65114,R,ugm-3,8.41816,R,ugm-3,12.48317,R,ugm-3
08-01-2017,09:00,3.56884,R,ugm-3,10.78746,R,ugm-3,16.25960,R,ugm-3
08-01-2017,10:00,4.79244,R,ugm-3,13.94652,R,ugm-3,21.29483,R,ugm-3
08-01-2017,11:00,10.06072,R,ugm-3,14.26065,R,ugm-3,29.68688,R,ugm-3
08-01-2017,12:00,10.26466,R,ugm-3,16.41312,R,ugm-3,32.15204,R,ugm-3
08-01-2017,13:00,12.20202,R,ugm-3,20.20862,R,ugm-3,38.91813,R,ugm-3
08-01-2017,14:00,16.55261,R,ugm-3,24.70974,R,ugm-3,50.09005,R,ugm-3
08-01-2017,15:00,22.12679,R,ugm-3,31.79297,R,ugm-3,65.72024,R,ugm-3
08-01-2017,16:00,16.24671,R,ugm-3,22.60871,R,ugm-3,47.51998,R,ugm-3
08-01-2017,17:00,11.76017,R,ugm-3,22.04003,R,ugm-3,40.07204,R,ugm-3
08-01-2017,18:00,9.34695,R,ugm-3,13.88647,R,ugm-3,28.21827,R,ugm-3
08-01-2017,19:00,6.05003,R,ugm-3,10.60209,R,ugm-3,19.87867,R,ugm-3
08-01-2017,20:00,5.77812,R,ugm-3,9.28815,R,ugm-3,18.14781,R,ugm-3
08-01-2017,21:00,3.50086,R,ugm-3,7.42997,R,ugm-3,12.79788,R,ugm-3
08-01-2017,22:00,2.00535,R,ugm-3,5.05498,R,ugm-3,8.12980,R,ugm-3
08-01-2017,23:00,1.32557,R,ugm-3,4.36643,R,ugm-3,6.39894,R,ugm-3
08-01-2017,24:00,0.81573,R,ugm-3,2.78790,R,ugm-3,4.03867,R,ugm-3
09-01-2017,01:00,0.45402,R,ugm-3,2.45661,R,ugm-3,3.15276,R,ugm-3
09-01-2017,02:00,0.18161,R,ugm-3,1.96350,R,ugm-3,2.24196,R,ugm-3
09-01-2017,03:00,0.44267,R,ugm-3,1.89601,R,ugm-3,2.57475,R,ugm-3
09-01-2017,04:00,0.44267,R,ugm-3,2.78929,R,ugm-3,3.46803,R,ugm-3
09-01-2017,05:00,1.39610,R,ugm-3,5.47850,R,ugm-3,7.61916,R,ugm-3
09-01-2017,06:00,2.24739,R,ugm-3,5.95978,R,ugm-3,9.40572,R,ugm-3
09-01-2017,07:00,7.49128,R,ugm-3,17.25615,R,ugm-3,28.74263,R,ugm-3
09-01-2017,08:00,40.14647,R,ugm-3,58.66804,R,ugm-3,120.22511,R,ugm-3
09-01-2017,09:00,27.85396,R,ugm-3,41.25961,R,ugm-3,83.96841,R,ugm-3
09-01-2017,10:00,27.78585,R,ugm-3,40.26056,R,ugm-3,82.86494,R,ugm-3
09-01-2017,11:00,14.47180,R,ugm-3,20.95043,R,ugm-3,43.14022,R,ugm-3
09-01-2017,12:00,17.91098,R,ugm-3,28.86613,R,ugm-3,56.32925,R,ugm-3
09-01-2017,13:00,20.43077,R,ugm-3,22.95320,R,ugm-3,54.27995,R,ugm-3
09-01-2017,14:00,24.04021,R,ugm-3,29.76711,R,ugm-3,66.62825,R,ugm-3
09-01-2017,15:00,18.28554,R,ugm-3,27.18834,R,ugm-3,55.22578,R,ugm-3
09-01-2017,16:00,16.54893,R,ugm-3,20.07757,R,ugm-3,45.45224,R,ugm-3
09-01-2017,17:00,20.39672,R,ugm-3,26.26326,R,ugm-3,57.53780,R,ugm-3
09-01-2017,18:00,14.33559,R,ugm-3,19.32017,R,ugm-3,41.30111,R,ugm-3
09-01-2017,19:00,12.05416,R,ugm-3,15.04153,R,ugm-3,33.52431,R,ugm-3
09-01-2017,20:00,9.43221,R,ugm-3,13.80720,R,ugm-3,28.26971,R,ugm-3
09-01-2017,21:00,6.29949,R,ugm-3,9.15236,R,ugm-3,18.81145,R,ugm-3
09-01-2017,22:00,3.71159,R,ugm-3,5.81653,R,ugm-3,11.50756,R,ugm-3
09-01-2017,23:00,2.62195,R,ugm-3,4.17690,R,ugm-3,8.19717,R,ugm-3
09-01-2017,24:00,1.08964,R,ugm-3,2.27019,R,ugm-3,3.94095,R,ugm-3
10-01-2017,01:00,0.91053,R,ugm-3,2.11331,R,ugm-3,3.50944,R,ugm-3
10-01-2017,02:00,1.27474,R,ugm-3,1.34430,R,ugm-3,3.29887,R,ugm-3
10-01-2017,03:00,0.64875,R,ugm-3,1.58470,R,ugm-3,2.57944,R,ugm-3
10-01-2017,04:00,1.02435,R,ugm-3,2.64068,R,ugm-3,4.21133,R,ugm-3
10-01-2017,05:00,1.67310,R,ugm-3,2.54085,R,ugm-3,5.10623,R,ugm-3
10-01-2017,06:00,0.81948,R,ugm-3,2.58632,R,ugm-3,3.84283,R,ugm-3
10-01-2017,07:00,6.69239,R,ugm-3,12.95341,R,ugm-3,23.21493,R,ugm-3
10-01-2017,08:00,27.48659,R,ugm-3,35.60606,R,ugm-3,77.75159,R,ugm-3
10-01-2017,09:00,33.15464,R,ugm-3,44.39219,R,ugm-3,95.22859,R,ugm-3
10-01-2017,10:00,18.43821,R,ugm-3,31.16079,R,ugm-3,59.43232,R,ugm-3
10-01-2017,11:00,18.67723,R,ugm-3,25.68808,R,ugm-3,54.32609,R,ugm-3
10-01-2017,12:00,15.60419,R,ugm-3,21.55622,R,ugm-3,45.48231,R,ugm-3
10-01-2017,13:00,21.85270,R,ugm-3,28.24155,R,ugm-3,61.74855,R,ugm-3
10-01-2017,14:00,16.56025,R,ugm-3,24.61746,R,ugm-3,50.00948,R,ugm-3
10-01-2017,15:00,19.90644,R,ugm-3,23.90859,R,ugm-3,54.43138,R,ugm-3
10-01-2017,16:00,14.17011,R,ugm-3,18.64888,R,ugm-3,40.37608,R,ugm-3
10-01-2017,17:00,13.24820,R,ugm-3,22.22076,R,ugm-3,42.53438,R,ugm-3
10-01-2017,18:00,19.87230,R,ugm-3,28.38284,R,ugm-3,58.85327,R,ugm-3
10-01-2017,19:00,12.49701,R,ugm-3,23.68842,R,ugm-3,42.85023,R,ugm-3
10-01-2017,20:00,7.81917,R,ugm-3,13.54193,R,ugm-3,25.53116,R,ugm-3
10-01-2017,21:00,5.66804,R,ugm-3,9.62839,R,ugm-3,18.31926,R,ugm-3
10-01-2017,22:00,2.52672,R,ugm-3,4.70633,R,ugm-3,8.58058,R,ugm-3
10-01-2017,23:00,1.26336,R,ugm-3,1.74779,R,ugm-3,3.68491,R,ugm-3
10-01-2017,24:00,1.16092,R,ugm-3,2.01013,R,ugm-3,3.79019,R,ugm-3
11-01-2017,01:00,0.36521,R,ugm-3,0.70571,R,ugm-3,1.26569,R,ugm-3
11-01-2017,02:00,0.54781,R,ugm-3,2.32426,R,ugm-3,3.16423,R,ugm-3
11-01-2017,03:00,0.92444,R,ugm-3,0.53383,R,ugm-3,1.95128,R,ugm-3
11-01-2017,04:00,0.78748,R,ugm-3,2.74783,R,ugm-3,3.95529,R,ugm-3
11-01-2017,05:00,1.09563,R,ugm-3,3.22462,R,ugm-3,4.90456,R,ugm-3
11-01-2017,06:00,0.92444,R,ugm-3,5.01649,R,ugm-3,6.43394,R,ugm-3
11-01-2017,07:00,3.66351,R,ugm-3,12.15513,R,ugm-3,17.77243,R,ugm-3
11-01-2017,08:00,11.50410,R,ugm-3,18.53834,R,ugm-3,36.17771,R,ugm-3
11-01-2017,09:00,15.61270,R,ugm-3,27.11045,R,ugm-3,51.04960,R,ugm-3
11-01-2017,10:00,9.31284,R,ugm-3,18.89220,R,ugm-3,33.17169,R,ugm-3
11-01-2017,11:00,12.18887,R,ugm-3,14.69331,R,ugm-3,33.38264,R,ugm-3
11-01-2017,12:00,10.54542,R,ugm-3,17.21322,R,ugm-3,33.38264,R,ugm-3
11-01-2017,13:00,17.25615,R,ugm-3,19.58051,R,ugm-3,46.03957,R,ugm-3
11-01-2017,14:00,14.51708,R,ugm-3,21.77635,R,ugm-3,44.03555,R,ugm-3
11-01-2017,15:00,17.56429,R,ugm-3,19.10803,R,ugm-3,46.03957,R,ugm-3
11-01-2017,16:00,16.36595,R,ugm-3,23.16042,R,ugm-3,48.25453,R,ugm-3
11-01-2017,17:00,20.91965,R,ugm-3,27.83309,R,ugm-3,59.90945,R,ugm-3
11-01-2017,18:00,20.26912,R,ugm-3,24.50611,R,ugm-3,55.58500,R,ugm-3
11-01-2017,19:00,12.97635,R,ugm-3,15.96450,R,ugm-3,35.86129,R,ugm-3
11-01-2017,20:00,7.36125,R,ugm-3,10.38789,R,ugm-3,21.67498,R,ugm-3
11-01-2017,21:00,6.36834,R,ugm-3,8.79884,R,ugm-3,18.56349,R,ugm-3
11-01-2017,22:00,5.78629,R,ugm-3,7.52908,R,ugm-3,16.40127,R,ugm-3
11-01-2017,23:00,2.05430,R,ugm-3,2.91489,R,ugm-3,6.06478,R,ugm-3
11-01-2017,24:00,1.50649,R,ugm-3,2.12001,R,ugm-3,4.42992,R,ugm-3
12-01-2017,01:00,0.54881,R,ugm-3,1.76492,R,ugm-3,2.60642,R,ugm-3
12-01-2017,02:00,0.50308,R,ugm-3,0.49661,R,ugm-3,1.26799,R,ugm-3
12-01-2017,03:00,1.37203,R,ugm-3,1.22472,R,ugm-3,3.32847,R,ugm-3
12-01-2017,04:00,0.51451,R,ugm-3,0.47908,R,ugm-3,1.26799,R,ugm-3
12-01-2017,05:00,2.64116,R,ugm-3,3.76954,R,ugm-3,7.81926,R,ugm-3
12-01-2017,06:00,1.16623,R,ugm-3,1.64595,R,ugm-3,3.43413,R,ugm-3
12-01-2017,07:00,9.56991,R,ugm-3,13.53907,R,ugm-3,28.21272,R,ugm-3
12-01-2017,08:00,25.41686,R,ugm-3,29.92202,R,ugm-3,68.89399,R,ugm-3
12-01-2017,09:00,39.13716,R,ugm-3,34.24427,R,ugm-3,94.25374,R,ugm-3
12-01-2017,10:00,16.60156,R,ugm-3,25.26413,R,ugm-3,50.71950,R,ugm-3
12-01-2017,11:00,15.09233,R,ugm-3,18.33251,R,ugm-3,41.47376,R,ugm-3
12-01-2017,12:00,18.52241,R,ugm-3,25.27751,R,ugm-3,53.67814,R,ugm-3
12-01-2017,13:00,23.63322,R,ugm-3,26.79245,R,ugm-3,63.02955,R,ugm-3
12-01-2017,14:00,22.12398,R,ugm-3,33.65020,R,ugm-3,67.57317,R,ugm-3
12-01-2017,15:00,36.39310,R,ugm-3,44.79171,R,ugm-3,100.59368,R,ugm-3
12-01-2017,16:00,31.31659,R,ugm-3,43.91100,R,ugm-3,91.92909,R,ugm-3
12-01-2017,17:00,37.79943,R,ugm-3,44.06185,R,ugm-3,102.02016,R,ugm-3
12-01-2017,18:00,40.37198,R,ugm-3,53.43119,R,ugm-3,115.33403,R,ugm-3
12-01-2017,19:00,25.07385,R,ugm-3,35.15008,R,ugm-3,73.59611,R,ugm-3
12-01-2017,20:00,18.14510,R,ugm-3,29.87134,R,ugm-3,57.69343,R,ugm-3
12-01-2017,21:00,10.15302,R,ugm-3,17.82259,R,ugm-3,33.39034,R,ugm-3
12-01-2017,22:00,4.80211,R,ugm-3,9.96604,R,ugm-3,17.32916,R,ugm-3
12-01-2017,23:00,2.98417,R,ugm-3,6.20224,R,ugm-3,10.77789,R,ugm-3
12-01-2017,24:00,2.16095,R,ugm-3,3.07936,R,ugm-3,6.39277,R,ugm-3
13-01-2017,01:00,1.05476,R,ugm-3,0.64101,R,ugm-3,2.25828,R,ugm-3
13-01-2017,02:00,1.05476,R,ugm-3,0.92329,R,ugm-3,2.54057,R,ugm-3
13-01-2017,03:00,0.75668,R,ugm-3,0.58642,R,ugm-3,1.74664,R,ugm-3
13-01-2017,04:00,0.55031,R,ugm-3,1.41474,R,ugm-3,2.32885,R,ugm-3
13-01-2017,05:00,1.44456,R,ugm-3,1.49003,R,ugm-3,3.70499,R,ugm-3
13-01-2017,06:00,1.16941,R,ugm-3,2.12364,R,ugm-3,3.91670,R,ugm-3
13-01-2017,07:00,9.38964,R,ugm-3,15.61317,R,ugm-3,30.01042,R,ugm-3
13-01-2017,08:00,46.39791,R,ugm-3,49.74609,R,ugm-3,120.88855,R,ugm-3
13-01-2017,09:00,33.74081,R,ugm-3,56.08005,R,ugm-3,107.81523,R,ugm-3
13-01-2017,10:00,18.71050,R,ugm-3,25.66848,R,ugm-3,54.35751,R,ugm-3
13-01-2017,11:00,12.82907,R,ugm-3,21.56028,R,ugm-3,41.23125,R,ugm-3
13-01-2017,12:00,37.18024,R,ugm-3,44.82541,R,ugm-3,101.83431,R,ugm-3
13-01-2017,13:00,36.07962,R,ugm-3,48.10086,R,ugm-3,103.42217,R,ugm-3
13-01-2017,14:00,31.78033,R,ugm-3,43.36632,R,ugm-3,92.09548,R,ugm-3
13-01-2017,15:00,39.10632,R,ugm-3,47.48255,R,ugm-3,107.44473,R,ugm-3
13-01-2017,16:00,43.71515,R,ugm-3,52.85395,R,ugm-3,119.88291,R,ugm-3
13-01-2017,17:00,54.58375,R,ugm-3,59.10701,R,ugm-3,142.80092,R,ugm-3
13-01-2017,18:00,49.28703,R,ugm-3,39.44111,R,ugm-3,115.01350,R,ugm-3
13-01-2017,19:00,33.50005,R,ugm-3,41.68217,R,ugm-3,93.04819,R,ugm-3
13-01-2017,20:00,23.59449,R,ugm-3,40.30388,R,ugm-3,76.48159,R,ugm-3
13-01-2017,21:00,12.69150,R,ugm-3,20.07752,R,ugm-3,39.53754,R,ugm-3
13-01-2017,22:00,7.87629,R,ugm-3,11.95270,R,ugm-3,24.02951,R,ugm-3
13-01-2017,23:00,3.68019,R,ugm-3,6.79530,R,ugm-3,12.43818,R,ugm-3
13-01-2017,24:00,1.96048,R,ugm-3,3.18661,R,ugm-3,6.19263,R,ugm-3
14-01-2017,01:00,1.19450,R,ugm-3,3.75870,R,ugm-3,5.59024,R,ugm-3
14-01-2017,02:00,0.27565,R,ugm-3,1.70021,R,ugm-3,2.12288,R,ugm-3
14-01-2017,03:00,3.17001,R,ugm-3,8.03585,R,ugm-3,12.89647,R,ugm-3
14-01-2017,04:00,4.96176,R,ugm-3,10.96723,R,ugm-3,18.57516,R,ugm-3
14-01-2017,05:00,7.64938,R,ugm-3,15.60313,R,ugm-3,27.33202,R,ugm-3
14-01-2017,06:00,4.37600,R,ugm-3,7.88500,R,ugm-3,14.59477,R,ugm-3
14-01-2017,07:00,8.99319,R,ugm-3,15.82474,R,ugm-3,29.61411,R,ugm-3
14-01-2017,08:00,10.64711,R,ugm-3,21.09033,R,ugm-3,37.41567,R,ugm-3
14-01-2017,09:00,10.88831,R,ugm-3,21.99423,R,ugm-3,38.68940,R,ugm-3
14-01-2017,10:00,28.59903,R,ugm-3,37.03030,R,ugm-3,80.88154,R,ugm-3
14-01-2017,11:00,52.23630,R,ugm-3,61.50122,R,ugm-3,141.59576,R,ugm-3
14-01-2017,12:00,61.22949,R,ugm-3,64.42950,R,ugm-3,158.31340,R,ugm-3
14-01-2017,13:00,52.64978,R,ugm-3,59.91193,R,ugm-3,140.64047,R,ugm-3
14-01-2017,14:00,50.06553,R,ugm-3,60.47779,R,ugm-3,137.24387,R,ugm-3
14-01-2017,15:00,62.36656,R,ugm-3,70.96523,R,ugm-3,166.59262,R,ugm-3
14-01-2017,16:00,57.74937,R,ugm-3,73.48064,R,ugm-3,162.02843,R,ugm-3
14-01-2017,17:00,55.81979,R,ugm-3,64.28582,R,ugm-3,149.87498,R,ugm-3
14-01-2017,18:00,53.54565,R,ugm-3,62.78403,R,ugm-3,144.88622,R,ugm-3
14-01-2017,19:00,38.55701,R,ugm-3,50.63272,R,ugm-3,109.75264,R,ugm-3
14-01-2017,20:00,30.94208,R,ugm-3,40.12473,R,ugm-3,87.56859,R,ugm-3
14-01-2017,21:00,10.50928,R,ugm-3,15.51683,R,ugm-3,31.63084,R,ugm-3
14-01-2017,22:00,6.44340,R,ugm-3,14.53333,R,ugm-3,24.41306,R,ugm-3
14-01-2017,23:00,3.96252,R,ugm-3,7.40448,R,ugm-3,13.48026,R,ugm-3
14-01-2017,24:00,2.92882,R,ugm-3,6.86659,R,ugm-3,11.35738,R,ugm-3
15-01-2017,01:00,1.24381,R,ugm-3,3.48050,R,ugm-3,5.38764,R,ugm-3
15-01-2017,02:00,1.61234,R,ugm-3,1.49762,R,ugm-3,3.96984,R,ugm-3
15-01-2017,03:00,1.00196,R,ugm-3,2.29175,R,ugm-3,3.82806,R,ugm-3
15-01-2017,04:00,1.03651,R,ugm-3,1.54760,R,ugm-3,3.13688,R,ugm-3
15-01-2017,05:00,1.14016,R,ugm-3,1.81401,R,ugm-3,3.56222,R,ugm-3
15-01-2017,06:00,0.79466,R,ugm-3,1.86526,R,ugm-3,3.08372,R,ugm-3
15-01-2017,07:00,2.24576,R,ugm-3,5.59502,R,ugm-3,9.03848,R,ugm-3
15-01-2017,08:00,3.28227,R,ugm-3,8.36547,R,ugm-3,13.39821,R,ugm-3
15-01-2017,09:00,5.94264,R,ugm-3,17.89718,R,ugm-3,27.00909,R,ugm-3
15-01-2017,10:00,9.46676,R,ugm-3,18.18252,R,ugm-3,32.69801,R,ugm-3
15-01-2017,11:00,31.33704,R,ugm-3,50.04458,R,ugm-3,98.09404,R,ugm-3
15-01-2017,12:00,30.05868,R,ugm-3,39.93568,R,ugm-3,86.02502,R,ugm-3
15-01-2017,13:00,33.92831,R,ugm-3,36.66071,R,ugm-3,88.68339,R,ugm-3
15-01-2017,14:00,28.43482,R,ugm-3,34.18460,R,ugm-3,77.78405,R,ugm-3
15-01-2017,15:00,29.64408,R,ugm-3,31.69242,R,ugm-3,77.14604,R,ugm-3
15-01-2017,16:00,39.00719,R,ugm-3,48.86418,R,ugm-3,108.67437,R,ugm-3
15-01-2017,17:00,32.44265,R,ugm-3,41.01222,R,ugm-3,90.75692,R,ugm-3
15-01-2017,18:00,21.24838,R,ugm-3,28.40273,R,ugm-3,60.98312,R,ugm-3
15-01-2017,19:00,20.14277,R,ugm-3,33.18168,R,ugm-3,64.06684,R,ugm-3